HB9DDE-10 Weather Reports


time (UTC)temp
C
wind
direction
speed
KPH
gust
KPH
rain 1hr
cm
rain 24hr
cm
rain mn
cm
humidity
%
barometer
mb
20260505224346 10 134 0.0 1.6 0.00 0.51 0.00 91 1010.6
20260505223835 10 134 0.0 1.6 0.00 0.51 0.00 90 1010.6
20260505223344 10 134 0.0 1.6 0.00 0.51 0.00 90 1010.6
20260505222834 10 134 0.0 1.6 0.00 0.51 0.00 90 1010.6
20260505222345 10 134 0.0 1.6 0.00 0.51 0.00 91 1010.6
20260505221834 10 134 0.0 0.0 0.00 0.51 0.00 91 1010.5
20260505221344 10 134 0.0 1.6 0.00 0.51 0.00 91 1010.6
20260505220853 10 134 0.0 1.6 0.00 0.51 0.00 91 1010.6
20260505220348 10 134 0.0 0.0 0.00 0.51 0.10 90 1010.6
20260505215836 10 134 0.0 0.0 0.00 0.51 0.10 89 1010.7
20260505215347 10 134 0.0 0.0 0.00 0.51 0.10 88 1010.7
20260505214837 11 134 0.0 0.0 0.00 0.51 0.10 86 1010.7
20260505214349 11 134 0.0 0.0 0.00 0.51 0.10 85 1010.6
20260505213837 11 134 0.0 1.6 0.00 0.51 0.10 84 1010.7
20260505213347 11 134 0.0 4.8 0.00 0.51 0.10 83 1010.7
20260505212835 11 134 0.0 4.8 0.00 0.51 0.10 83 1010.8
20260505211849 11 146 1.6 3.2 0.00 0.51 0.10 85 1010.8
20260505211339 11 145 1.6 3.2 0.00 0.51 0.10 88 1010.9
20260505210848 10 145 0.0 3.2 0.00 0.51 0.10 87 1011.0
20260505210336 11 145 0.0 1.6 0.00 0.51 0.10 86 1010.9
20260505205848 11 145 0.0 1.6 0.00 0.51 0.10 84 1010.8
20260505205339 12 145 0.0 1.6 0.00 0.51 0.10 83 1010.8
20260505204849 12 145 0.0 4.8 0.00 0.51 0.10 82 1010.8
20260505204339 12 145 1.6 4.8 0.00 0.51 0.10 82 1010.9
20260505203853 12 143 3.2 4.8 0.00 0.51 0.10 82 1010.9
20260505203342 12 144 0.0 4.8 0.00 0.51 0.10 83 1010.9
20260505202852 12 144 1.6 4.8 0.00 0.51 0.10 84 1010.9
20260505202341 12 144 1.6 3.2 0.00 0.51 0.10 84 1010.7
20260505201850 12 144 0.0 1.6 0.00 0.51 0.10 85 1010.7
20260505201340 12 144 0.0 3.2 0.00 0.51 0.10 85 1010.7
20260505200850 12 144 0.0 3.2 0.00 0.51 0.10 85 1010.6
20260505200341 12 144 1.6 3.2 0.00 0.51 0.10 86 1010.6
20260505195344 12 144 1.6 3.2 0.00 0.51 0.10 87 1010.4
20260505194851 12 144 0.0 3.2 0.00 0.51 0.10 87 1010.4
20260505194340 12 144 0.0 8.0 0.00 0.51 0.10 87 1010.4
20260505193850 11 147 3.2 6.4 0.00 0.51 0.10 89 1010.4
20260505193339 12 147 1.6 3.2 0.00 0.51 0.10 89 1010.4
20260505192849 12 147 0.0 3.2 0.00 0.51 0.10 88 1010.4
20260505192336 12 147 0.0 1.6 0.00 0.51 0.10 87 1010.3
20260505191846 12 146 1.6 1.6 0.00 0.51 0.10 87 1010.3
20260505191337 12 146 0.0 1.6 0.00 0.51 0.10 86 1010.1
20260505190849 12 147 0.0 1.6 0.00 0.51 0.10 86 1010.1
20260505190336 12 146 0.0 1.6 0.00 0.51 0.10 86 1010.0
20260505185846 12 146 0.0 1.6 0.00 0.51 0.10 85 1009.9
20260505185336 13 146 0.0 1.6 0.00 0.51 0.10 84 1009.9
20260505184848 13 147 0.0 0.0 0.00 0.51 0.10 83 1009.9
20260505184338 13 147 0.0 0.0 0.00 0.51 0.10 82 1009.9
20260505183849 13 147 0.0 3.2 0.00 0.51 0.10 81 1009.9
20260505183340 14 147 0.0 4.8 0.00 0.51 0.10 80 1009.7
20260505182853 14 146 1.6 4.8 0.00 0.51 0.10 79 1009.7
20260505182342 14 153 1.6 6.4 0.00 0.51 0.10 78 1009.7
20260505181851 15 141 3.2 8.0 0.00 0.51 0.10 77 1009.8
20260505181341 15 139 3.2 8.0 0.00 0.51 0.10 76 1009.8
20260505180850 15 144 1.6 8.0 0.00 0.51 0.10 75 1009.8
20260505180340 15 152 0.0 12.9 0.00 0.51 0.10 74 1009.8
20260505175850 15 199 3.2 14.5 0.00 0.51 0.10 74 1009.7
20260505175340 16 142 6.4 11.3 0.00 0.51 0.10 74 1009.8
20260505174834 16 145 3.2 11.3 0.00 0.51 0.10 75 1009.7
20260505174344 15 257 1.6 6.4 0.00 0.51 0.10 77 1009.7
20260505173835 15 136 1.6 4.8 0.00 0.51 0.10 79 1009.9
20260505173344 14 142 0.0 12.9 0.00 0.51 0.10 81 1009.9
20260505172834 14 143 0.0 12.9 0.00 0.51 0.10 81 1009.9
20260505172343 14 159 1.6 11.3 0.00 0.51 0.10 81 1009.7
20260505171852 14 151 4.8 11.3 0.00 0.51 0.10 81 1009.6
20260505171341 14 145 3.2 9.7 0.00 0.51 0.10 82 1009.5
20260505170851 13 152 1.6 9.7 0.00 0.51 0.10 82 1009.5
20260505170345 13 236 3.2 9.7 0.00 0.51 0.10 82 1009.7
20260505165834 13 141 3.2 9.7 0.00 0.51 0.10 83 1009.7
20260505165346 13 195 1.6 8.0 0.00 0.51 0.10 83 1009.6
20260505164835 13 174 3.2 8.0 0.00 0.51 0.10 83 1009.6
20260505164344 13 138 0.0 6.4 0.00 0.51 0.10 82 1009.6
20260505163834 13 147 1.6 8.0 0.00 0.51 0.10 82 1009.7
20260505163343 13 137 1.6 8.0 0.00 0.51 0.10 82 1009.8
20260505162852 13 136 0.0 9.7 0.00 0.51 0.10 82 1009.6
20260505162343 13 149 3.2 9.7 0.00 0.51 0.10 82 1009.7
20260505161837 13 150 1.6 11.3 0.00 0.51 0.10 82 1009.8
20260505161347 13 144 1.6 6.4 0.00 0.51 0.10 82 1009.8
20260505160837 13 148 1.6 6.4 0.00 0.51 0.10 82 1009.9
20260505160349 13 132 0.0 6.4 0.00 1.50 0.10 82 1009.9
20260505153351 14 30 3.2 11.3 0.00 1.50 0.10 76 1009.8
20260505152841 14 61 4.8 11.3 0.00 1.50 0.10 77 1009.8
20260505152350 14 141 3.2 9.7 0.00 1.50 0.10 78 1009.8
20260505151840 14 300 1.6 6.4 0.00 1.50 0.10 80 1009.7
20260505151350 13 128 1.6 8.0 0.00 1.50 0.10 81 1009.7
20260505150839 13 311 1.6 8.0 0.00 1.50 0.10 81 1009.7
20260505150350 13 265 3.2 8.0 0.00 1.60 0.10 81 1009.7
20260505140354 16 1 3.2 9.7 0.00 1.60 0.10 77 1009.3
20260505124847 16 212 0.0 9.7 0.00 1.60 0.10 75 1009.6
20260505124341 16 244 3.2 6.4 0.00 1.60 0.10 75 1009.6
20260505123851 16 167 1.6 4.8 0.00 1.60 0.10 77 1009.6
20260505123339 16 306 1.6 6.4 0.00 1.60 0.10 78 1009.6
20260505122848 16 178 1.6 6.4 0.00 1.60 0.10 79 1009.6
20260505122336 16 240 1.6 6.4 0.00 1.60 0.10 79 1009.6
20260505121847 16 188 0.0 6.4 0.00 1.60 0.10 80 1009.7
20260505121337 16 291 0.0 3.2 0.00 1.60 0.10 82 1009.6
20260505120348 15 259 0.0 6.4 0.00 1.60 0.10 82 1009.7
20260505115841 15 184 3.2 6.4 0.10 1.60 0.10 84 1009.7
20260505115351 15 288 0.0 4.8 0.10 1.60 0.10 86 1009.7
20260505114841 15 223 1.6 6.4 0.10 1.60 0.10 85 1009.8
20260505114351 14 150 0.0 6.4 0.10 1.60 0.10 86 1009.7
20260505113840 14 179 1.6 6.4 0.10 1.60 0.10 86 1009.8
20260505113349 14 124 0.0 1.6 0.20 1.60 0.10 89 1009.9
20260505112838 13 290 0.0 1.6 0.20 1.60 0.10 88 1009.9
20260505112347 13 169 0.0 1.6 0.30 1.60 0.10 89 1010.0
20260505111841 13 120 0.0 1.6 0.30 1.60 0.10 88 1009.9
20260505111351 13 120 0.0 1.6 0.30 1.60 0.10 89 1009.9
20260505110841 13 283 0.0 1.6 0.30 1.60 0.10 88 1009.9
20260505110351 13 283 0.0 1.6 0.30 1.60 0.10 88 1009.9
20260505101840 13 146 1.6 4.8 0.00 1.30 0.05 89 1010.4
20260505101351 13 202 0.0 4.8 0.00 1.30 0.05 89 1010.4
20260505100840 13 148 0.0 3.2 0.00 1.30 0.05 88 1010.3
20260505100351 13 201 0.0 0.0 0.00 1.30 0.05 88 1010.2
20260505095841 12 201 0.0 3.2 0.00 1.30 0.05 88 1010.1
20260505095335 12 193 0.0 4.8 0.00 1.30 0.05 88 1010.2
20260505094844 12 143 1.6 4.8 0.00 1.30 0.05 88 1010.2
20260505094353 13 136 0.0 3.2 0.00 1.30 0.05 89 1010.1
20260505093843 12 264 0.0 1.6 0.00 1.30 0.05 89 1010.1
20260505092842 12 268 0.0 1.6 0.00 1.30 0.05 89 1010.0
20260505092351 12 314 0.0 3.2 0.00 1.30 0.05 90 1010.0
20260505091841 12 165 0.0 3.2 0.00 1.30 0.05 89 1010.0
20260505091351 12 343 0.0 1.6 0.00 1.30 0.05 90 1010.0
20260505090845 12 343 0.0 1.6 0.00 1.30 0.05 90 1010.1
20260505090354 12 205 0.0 1.6 0.00 1.30 0.05 91 1010.1
20260505085843 12 259 0.0 4.8 0.00 1.30 0.05 91 1010.0
20260505084850 12 295 0.0 1.6 0.00 1.30 0.05 91 1010.3
20260505084341 12 295 0.0 3.2 0.00 1.30 0.05 91 1010.2
20260505083851 12 294 0.0 3.2 0.00 1.30 0.05 92 1010.2
20260505083340 12 297 0.0 1.6 0.00 1.30 0.05 93 1010.2
20260505082834 11 297 0.0 3.2 0.00 1.30 0.05 94 1010.3
20260505082345 11 294 0.0 3.2 0.10 1.30 0.05 93 1010.4
20260505081834 11 133 0.0 4.8 0.10 1.30 0.05 94 1010.4
20260505081344 11 140 1.6 4.8 0.10 1.30 0.05 94 1010.4
20260505080835 11 125 0.0 6.4 0.10 1.30 0.05 94 1010.4
20260505080345 11 134 1.6 6.4 0.10 1.30 0.05 94 1010.4
20260505075835 11 200 0.0 1.6 0.10 1.30 0.05 94 1010.5
20260505075345 11 193 0.0 3.2 0.10 1.30 0.05 94 1010.5
20260505074852 11 193 0.0 3.2 0.20 1.30 0.05 95 1010.6
20260505074346 11 193 0.0 0.0 0.20 1.30 0.05 95 1010.7
20260505073853 11 193 0.0 0.0 0.20 1.30 0.05 95 1010.8
20260505073342 11 193 0.0 0.0 0.20 1.30 0.05 95 1010.9
20260505072853 11 193 0.0 1.6 0.20 1.30 0.05 95 1011.0
20260505072343 10 134 0.0 1.6 0.10 1.19 0.03 95 1011.0
20260505071853 10 134 0.0 1.6 0.10 1.19 0.03 95 1011.0
20260505071341 10 134 0.0 1.6 0.10 1.19 0.03 95 1011.1
20260505070850 10 134 0.0 1.6 0.10 1.19 0.03 95 1011.0
20260505070343 10 134 0.0 1.6 0.10 1.19 0.03 95 1011.1
20260505065836 10 160 0.0 3.2 0.10 1.19 0.03 95 1011.2
20260505064845 10 141 0.0 1.6 0.00 1.09 0.00 95 1011.2
20260505064334 10 141 0.0 1.6 0.00 1.09 0.00 95 1011.2
20260505063846 10 143 0.0 1.6 0.00 1.09 0.00 95 1011.3
20260505063336 10 143 0.0 1.6 0.00 1.09 0.00 96 1011.3
20260505062847 10 143 0.0 0.0 0.00 1.09 0.00 96 1011.4
20260505062336 10 143 0.0 1.6 0.00 1.09 0.00 96 1011.3
20260505061850 10 143 0.0 1.6 0.00 1.09 0.00 96 1011.4
20260505061340 10 143 0.0 0.0 0.00 1.09 0.00 96 1011.5
20260505060849 10 160 0.0 1.6 0.00 1.09 0.00 96 1011.4
20260505060339 10 160 0.0 0.0 0.00 1.09 0.00 96 1011.4
20260505055849 10 160 0.0 3.2 0.00 1.09 0.00 96 1011.4
20260505055339 10 160 0.0 3.2 0.00 1.09 0.00 96 1011.5
20260505054930 10 169 0.0 3.2 0.00 1.09 0.00 97 1011.5
20260505054334 9 142 0.0 3.2 0.00 1.09 0.00 97 1011.5
20260505053844 9 142 0.0 1.6 0.00 1.09 0.00 97 1011.4
20260505053352 9 142 0.0 0.0 0.00 1.09 0.00 97 1011.3
20260505052846 9 142 0.0 1.6 0.00 1.09 0.00 97 1011.3
20260505052335 9 142 0.0 1.6 0.00 1.09 0.00 97 1011.3
20260505051845 9 142 0.0 1.6 0.00 1.09 0.00 97 1011.3
20260505051353 9 142 0.0 0.0 0.00 1.09 0.00 97 1011.2
20260505050845 9 142 0.0 0.0 0.00 1.09 0.00 97 1011.2
20260505050334 9 142 0.0 0.0 0.00 1.09 0.00 97 1011.1
20260505041345 8 142 0.0 1.6 0.00 1.09 0.00 97 1011.4
20260505040835 8 142 0.0 4.8 0.00 1.09 0.00 97 1011.5
20260505040349 8 142 0.0 4.8 0.00 1.09 0.00 97 1011.6
20260505035837 8 144 0.0 1.6 0.00 1.09 0.00 97 1011.6
20260505035349 8 144 0.0 1.6 0.00 1.09 0.00 97 1011.4
20260505034839 8 144 0.0 1.6 0.00 1.09 0.00 97 1011.4
20260505034349 8 144 0.0 1.6 0.00 1.09 0.00 97 1011.3
20260505033839 8 144 0.0 0.0 0.00 1.09 0.00 97 1011.3
20260505033350 8 144 0.0 0.0 0.00 1.09 0.00 97 1011.3
20260505032840 8 144 0.0 0.0 0.00 1.09 0.00 97 1011.3
20260505032334 8 144 0.0 0.0 0.00 1.09 0.00 97 1011.4
20260505031843 8 144 0.0 0.0 0.00 1.09 0.00 97 1011.5
20260505031353 8 144 0.0 0.0 0.00 1.09 0.00 97 1011.6
20260505030841 8 144 0.0 0.0 0.00 1.09 0.00 96 1011.6
20260505030351 8 144 0.0 1.6 0.00 1.09 0.00 96 1011.7
20260505025840 8 144 0.0 1.6 0.00 1.09 0.00 96 1011.7
20260505025351 8 144 0.0 0.0 0.00 1.09 0.00 96 1011.6
20260505024840 8 144 0.0 0.0 0.00 1.09 0.00 96 1011.6
20260505024350 8 144 0.0 0.0 0.00 1.09 0.00 96 1011.6
20260505023844 8 144 0.0 0.0 0.00 1.09 0.00 97 1011.7
20260505023334 8 144 0.0 0.0 0.00 1.09 0.00 97 1011.7
20260505022844 8 144 0.0 0.0 0.00 1.09 0.00 97 1011.8
20260505022334 8 144 0.0 0.0 0.00 1.09 0.00 96 1011.8
20260505021844 8 144 0.0 0.0 0.00 1.09 0.00 96 1011.9
20260505021353 8 144 0.0 0.0 0.00 1.09 0.00 96 1011.9
20260505020844 8 144 0.0 0.0 0.00 1.09 0.00 96 1012.0
20260505020352 8 144 0.0 0.0 0.00 1.09 0.00 96 1011.9
20260505015841 8 144 0.0 0.0 0.00 1.09 0.00 96 1011.9
20260505015334 8 144 0.0 0.0 0.00 1.09 0.00 96 1012.0
20260505014844 8 144 0.0 0.0 0.00 1.09 0.00 96 1012.1
20260505014334 8 144 0.0 0.0 0.00 1.09 0.00 96 1012.0
20260505013844 8 144 0.0 0.0 0.00 1.09 0.00 96 1011.9
20260505013335 8 144 0.0 1.6 0.00 1.09 0.00 96 1011.9
20260505012844 8 144 0.0 1.6 0.00 1.09 0.00 96 1012.0
20260505012352 8 144 0.0 1.6 0.00 1.09 0.00 96 1012.1
20260505011841 8 144 0.0 0.0 0.00 1.09 0.00 96 1012.0
20260505011334 8 144 0.0 0.0 0.00 1.09 0.00 96 1012.2
20260505010845 8 144 0.0 0.0 0.00 1.09 0.00 96 1012.2
20260505010335 8 144 0.0 0.0 0.00 1.09 0.00 96 1012.3
20260505005845 8 144 0.0 0.0 0.00 1.09 0.00 96 1012.3
20260505005335 8 144 0.0 0.0 0.00 1.09 0.00 96 1012.4
20260505004846 8 144 0.0 0.0 0.00 1.09 0.00 96 1012.5
20260505004335 8 144 0.0 0.0 0.00 1.09 0.00 96 1012.6
20260505003846 8 144 0.0 0.0 0.00 1.09 0.00 96 1012.7
20260505003336 8 144 0.0 0.0 0.00 1.09 0.00 96 1012.8
20260505002850 8 144 0.0 1.6 0.00 1.09 0.00 96 1012.8
20260505002341 8 144 0.0 1.6 0.00 1.09 0.00 95 1013.0
20260505001850 8 144 0.0 0.0 0.00 1.09 0.00 96 1012.8
20260505001340 8 144 0.0 0.0 0.00 1.09 0.00 96 1012.9
20260505000850 8 144 0.0 0.0 0.00 1.09 0.00 96 1012.9
20260505000339 8 144 0.0 0.0 0.00 1.09 0.00 96 1013.0
20260504235848 8 144 0.0 1.6 0.00 1.09 0.00 96 1013.0
20260504235338 8 144 0.0 1.6 0.00 1.09 0.00 96 1013.1
20260504234848 8 144 0.0 0.0 0.00 1.09 0.00 95 1013.1
20260504234342 8 144 0.0 0.0 0.00 1.09 0.00 95 1013.2
20260504233853 8 144 0.0 1.6 0.00 1.09 0.00 95 1013.4
20260504233343 8 144 0.0 1.6 0.00 1.09 0.00 95 1013.4
20260504232852 8 144 0.0 0.0 0.00 1.09 0.00 95 1013.4
20260504232341 8 144 0.0 0.0 0.00 1.09 0.00 95 1013.4
20260504231851 8 144 0.0 0.0 0.00 1.09 0.00 95 1013.5
20260504231340 8 144 0.0 0.0 0.00 1.09 0.00 95 1013.6
20260504230850 8 144 0.0 1.6 0.00 1.09 0.00 95 1013.7
20260504230345 8 144 1.6 1.6 0.00 1.09 0.00 95 1013.7
20260504225836 8 144 0.0 1.6 0.00 1.09 0.00 95 1013.6
20260504225347 9 144 0.0 1.6 0.00 1.09 0.00 95 1013.7
20260504224837 9 144 0.0 0.0 0.00 1.09 0.00 95 1013.7